Location: LDNL
(36.4545°S, 141.6685°E)
Time: 21:52:12
(UTC+11:00)

N. Korean satellite - Visible Passes

Search period start: 01 December 2021 00:00
Search period end: 11 December 2021 00:00
Orbit: 447 x 495 km, 97.3° (Epoch: 30 November)

Date Brightness Start Highest point End Pass type
(mag) Time Alt. Az. Time Alt. Az. Time Alt. Az.
01 Dec 9.8 05:08:36 10° ENE 05:10:36 15° ESE 05:12:38 10° SSE visible
04 Dec 9.6 05:15:45 10° ENE 05:18:13 18° ESE 05:20:46 10° SSE visible
07 Dec 9.4 05:22:57 10° NE 05:25:47 23° ESE 05:28:41 10° SSE visible
08 Dec 10.3 04:56:57 10° ESE 04:57:32 10° ESE 04:58:07 10° ESE visible
10 Dec 8.9 05:30:10 10° NE 05:33:16 29° ESE 05:36:26 10° SSE visible
